AirNav   Air Wisconsin Airman Trainee
 
 451 users online  

2T7 Van Camp's Heliport
Tecumseh, Michigan, USA

GOING TO TECUMSEH?


FAA INFORMATION EFFECTIVE 28 FEBRUARY 2019

Location

FAA Identifier: 2T7
Lat/Long: 42-01-09.2400N / 083-50-55.1400W
42-01.154000N / 083-50.919000W
42.0192333 / -83.8486500
(estimated)
Elevation: 740 ft. / 226 m (estimated)
From city: 5 miles NE of TECUMSEH, MI
Time zone: UTC -5 (UTC -4 during Daylight Saving Time)
Zip code: 49286

Heliport Operations

Heliport use: Open to the public
Activation date: 11/2003
Control tower: no
ARTCC: CLEVELAND CENTER
FSS: LANSING FLIGHT SERVICE STATION
NOTAMs facility: LAN (NOTAM-D service available)
Attendance: IREG
Wind indicator: yes
Segmented circle: no

Heliport Communications

CTAF: 122.9
WX ASOS at ARB (13 nm N): PHONE 734-668-7173
WX ASOS at ADG (14 nm SW): 118.375 (517-265-9089)
WX AWOS-3 at DUH (19 nm SE): 119.175 (734-856-1563)
WX AWOS-3 at TTF (19 nm E): 119.075 (734-384-0259)
WX ASOS at YIP (19 nm NE): PHONE 734-485-9056

Nearby radio navigation aids

VOR radial/distance  VOR name  Freq  Var
CRLr267/17.5CARLETON VOR/DME115.7003W
DXOr248/24.4DETROIT VOR/DME113.4006W
SVMr209/26.0SALEM VORTAC114.3003W
JXNr123/30.7JACKSON VOR/DME109.6005W
VWVr347/35.3WATERVILLE VOR/DME113.1002W

 
NDB name  Hdg/Dist  Freq  Var  ID
TECUMSEH124/1.923906WTCU - -.-. ..-
ADRIAN055/13.627806WADG .- -.. --.
GROSSE ILE268/31.441907WRYS .-. -.-- ...

Heliport Services

Parking: tiedowns
Airframe service: MAJOR
Powerplant service: MAJOR

Runway Information

Helipad H1

Dimensions: 90 x 50 ft. / 27 x 15 m
Surface: turf, in good condition
Runway edge markings: MKD WITH CONES.
Traffic pattern: leftleft

Heliport Ownership and Management from official FAA records

Ownership: Privately-owned
Owner: CRAIG VAN CAMP
8735 MILLS MACON HWY
TECUMSEH, MI 49286
Phone 517-424-7675
Manager: CRAIG VAN CAMP
8735 MILLS MACON HWY
TECUMSEH, MI 49286
Phone 517-605-3129

Heliport Operational Statistics

Aircraft based on the field: 2
Single engine airplanes: 1
Helicopters: 1
    
Aircraft operations: 100/year *
50% transient general aviation
50% local general aviation
* for 12-month period ending 31 December 2016

Additional Remarks

A52-H1 35 FT TREE 102 FT FM HELIPORT 180 DEGS, APCH RATIO 2:1. 60 FT TREE 80 FT FM HELIPORT 270 DEGS APCH RATIO 2:1.
APCH/DEP USE ADJ N-S RWY.
FOR CD CTC DETROIT APCH AT 800-499-8181.

Instrument Procedures

There are no published instrument procedures at 2T7.

Some nearby airports with instrument procedures:

KARB - Ann Arbor Municipal Airport (13 nm N)
KADG - Lenawee County Airport (14 nm SW)
KDUH - Toledo Suburban Airport (19 nm SE)
KTTF - Custer Airport (19 nm E)
KYIP - Willow Run Airport (19 nm NE)
 
Loc | Ops | Rwys | IFR | FBO | Links
Com | Nav | Svcs | Stats | Notes
Area around 2T7 (Van Camp's Heliport)
 
Road maps at: MapQuest Bing Google
 
Aerial photo
No photo
 
Sectional chart

 
Airport distance calculator
Flying to Van Camp's Heliport? Find the distance to fly.

From to 2T7

Sunrise and sunset
Times for 22-Mar-2019
 Local
(UTC-4)
 Zulu
(UTC)
Morning civil twilight07:0811:08
Sunrise07:3611:36
Sunset19:4823:48
Evening civil twilight20:1600:16

Current date and time
Zulu (UTC)  22-Mar-2019 05:11:25
Local (UTC-4)  22-Mar-2019 01:11:25
 
METAR
KARB 
13nm NE 
734-668-7173
220453Z AUTO 22006KT 10SM CLR 00/M02 A2986 RMK AO2 SLP116 T00001022 400610000
KADG 
14nm SW 
220453Z AUTO 25004KT 10SM CLR 01/M02 A2989 RMK AO2 SLP130 T00061022 400610006 TSNO
KYIP 
19nm NE 
220453Z 25006KT 10SM FEW028 03/M02 A2986 RMK AO2 SLP115 T00281017 400780028
KDUH 
19nm SE 
220456Z AUTO 00000KT 10SM SCT030 02/00 A2989 RMK AO2 T00231005
KTTF 
20nm E 
220456Z AUTO 27007KT 10SM OVC031 02/00 A2987 RMK AO2 T00240004
TAF
KYIP 
19nm NE 
220202Z 2202/2224 26005KT P6SM OVC028 FM220500 26005KT P6SM SCT035 FM220800 30014G20KT P6SM BKN035 OVC060 TEMPO 2211/2215 2SM -SHSN BKN015 OVC030 FM221500 33018G27KT P6SM BKN022 OVC040 FM221700 32018G26KT P6SM SCT030 BKN040
NOTAMs
Click for the latest NOTAMs
NOTAMs are issued by the DoD/FAA and will open in a separate window not controlled by AirNav.

 

 
 

Would you like to see your business listed on this page?

 If your business provides an interesting product or service to pilots, flight crews, aircraft, or users of the Van Camp's Heliport, you should consider listing it here.  To start the listing process, click on the button below
 
Add a business
 

Other Pages about Van Camp's Heliport

Page from the Michigan Airport Directory (PDF)
 
Update a link
 
Copyright © AirNav, LLC. All rights reserved. Privacy Policy  Contact